Location: Lane
(33.5226°N, 79.8788°W)
Time: 15:46:41
(UTC+00:00)

Courier 1B - Visible Passes

Search period start: 03 October 2022 00:00
Search period end: 13 October 2022 00:00
Orbit: 962 x 1209 km, 28.3° (Epoch: 02 October)

Date Brightness Start Highest point End Pass type
(mag) Time Alt. Az. Time Alt. Az. Time Alt. Az.
03 Oct 9.1 00:58:49 10° WSW 01:03:51 23° SSW 01:06:04 19° S visible
04 Oct 9.0 00:04:32 10° W 00:10:16 29° SSW 00:15:48 10° SE visible
04 Oct 8.8 23:10:22 10° W 23:16:39 36° SSW 23:22:37 10° SE visible
05 Oct 9.7 01:06:43 10° WSW 01:09:53 14° SSW 01:12:37 11° S visible
06 Oct 9.6 00:11:43 10° WSW 00:16:21 19° SSW 00:20:49 10° SSE visible
06 Oct 9.4 23:17:11 10° WSW 23:22:45 25° SSW 23:28:04 10° SSE visible
08 Oct 10.0 00:20:52 10° SW 00:22:19 11° SSW 00:23:44 10° SSW visible
08 Oct 9.9 23:24:45 10° WSW 23:28:45 16° SSW 23:32:37 10° S visible
